Weather History for Wiscasset, ME

Change the Weather History Date:

Thursday, January 24, 2013

  Actual Average Record
Temperature  
Mean Temperature 3 °F -  
Max Temperature 10 °F 25 °F 54 °F (1999)
Min Temperature -4 °F 7 °F -11 °F (2011)
Degree Days  
Heating Degree Days 62    
Moisture  
Dew Point -16 °F    
Average Humidity 40    
Maximum Humidity 51    
Minimum Humidity 26    
Precipitation  
Precipitation 0.00 in - - ()
Sea Level Pressure  
Sea Level Pressure 30.03 in    
Wind  
Wind Speed 6 mph (WNW)    
Max Wind Speed 10 mph    
Max Gust Speed 26 mph    
Visibility 10 miles    
Events      
Averages and records for this station are not official NWS values.
T = Trace of Precipitation, MM = Missing Value Source: NWS Daily Summary

Daily Weather History Graph

Daily Weather History Graph

Search for Another Location

Airport:

Trip Planner

Search our weather history database for the weather conditions in past years. The results will help you decide how hot, cold, wet, or windy it might be!

Date:

Astronomy

Jan. 24, 2013 Rise Set
Actual Time 7:03 AM EST 4:38 PM EST
Civil Twilight 6:32 AM EST 5:10 PM EST
Nautical Twilight 5:57 AM EST 5:45 PM EST
Astronomical Twilight 5:23 AM EST 6:19 PM EST
Moon 2:36 PM EST (1/24) 5:00 AM EST (1/24)
Length of Visible Light 10h 37m
Length of Day
9h 34m
Waxing Gibbous, 94% of the Moon is Illuminated
Jan 24
Waxing Gibbous
Jan 26
Full
Feb 3
Last Quarter
Feb 10
New
Feb 17
First Quarter

Hourly Weather History & Observations

Time (EST) Temp. Windchill Dew Point Humidity Pressure Visibility Wind Dir Wind Speed Gust Speed Precip Events Conditions
12:53 AM -2.9 °F -11.2 °F -18.9 °F 46% 30.06 in 10.0 mi WNW 3.5 mph - N/A   Clear
1:53 AM -4.0 °F -14.6 °F -18.9 °F 49% 30.06 in 10.0 mi West 4.6 mph - N/A   Clear
2:53 AM -2.9 °F -13.3 °F -18.9 °F 46% 30.06 in 10.0 mi Variable 4.6 mph - N/A   Clear
3:53 AM -2.9 °F -11.2 °F -18.9 °F 46% 30.05 in 10.0 mi Variable 3.5 mph - N/A   Clear
4:53 AM -2.9 °F -15.0 °F -18.9 °F 46% 30.04 in 10.0 mi West 5.8 mph - N/A   Clear
5:53 AM -2.9 °F -13.3 °F -18.9 °F 46% 30.04 in 10.0 mi West 4.6 mph - N/A   Clear
6:53 AM -4.0 °F -16.3 °F -18.0 °F 51% 30.04 in 10.0 mi West 5.8 mph - N/A   Clear
7:53 AM -0.9 °F -11.0 °F -17.0 °F 47% 30.05 in 10.0 mi West 4.6 mph - N/A   Clear
8:53 AM 1.9 °F -11.8 °F -16.1 °F 43% 30.04 in 10.0 mi West 8.1 mph - N/A   Clear
9:53 AM 6.1 °F -5.6 °F -15.0 °F 38% 30.04 in 10.0 mi Variable 6.9 mph 18.4 mph N/A   Clear
10:53 AM 9.0 °F -2.2 °F -15.0 °F 33% 30.01 in 10.0 mi Variable 6.9 mph 16.1 mph N/A   Clear
11:53 AM 10.9 °F 1.4 °F -16.1 °F 29% 29.98 in 10.0 mi Variable 5.8 mph 19.6 mph N/A   Scattered Clouds
12:53 PM 10.9 °F -1.8 °F -16.1 °F 29% 29.97 in 10.0 mi WNW 9.2 mph 17.3 mph N/A   Overcast
1:53 PM 10.9 °F -2.6 °F -18.0 °F 26% 29.96 in 10.0 mi WNW 10.4 mph 26.5 mph N/A   Clear
2:53 PM 10.0 °F 0.4 °F -18.0 °F 27% 29.95 in 10.0 mi Variable 5.8 mph 19.6 mph N/A   Clear
3:53 PM 10.9 °F -1.8 °F -17.0 °F 28% 29.94 in 10.0 mi West 9.2 mph 20.7 mph N/A   Clear
4:53 PM 10.9 °F 1.4 °F -15.0 °F 30% 29.95 in 10.0 mi Variable 5.8 mph - N/A   Clear
5:53 PM 10.9 °F -0.8 °F -15.0 °F 30% 29.99 in 10.0 mi WNW 8.1 mph 24.2 mph N/A   Clear
6:53 PM 8.1 °F -6.2 °F -11.9 °F 40% 30.02 in 10.0 mi NW 10.4 mph 25.3 mph N/A   Clear
7:53 PM 6.1 °F -4.3 °F -11.9 °F 44% 30.06 in 10.0 mi Variable 5.8 mph 16.1 mph N/A   Clear
8:53 PM 3.9 °F -5.3 °F -13.0 °F 46% 30.07 in 10.0 mi Variable 4.6 mph - N/A   Clear
9:53 PM 3.9 °F -8.2 °F -13.0 °F 46% 30.09 in 10.0 mi WNW 6.9 mph 18.4 mph N/A   Clear
10:53 PM 3.9 °F -8.2 °F -13.0 °F 46% 30.11 in 10.0 mi WNW 6.9 mph - N/A   Clear
11:53 PM 3.9 °F -8.2 °F -13.0 °F 46% 30.10 in 10.0 mi Variable 6.9 mph 17.3 mph N/A   Clear